User: anonymous   Login
Location: Unspecified
(42.0334°N, 93.6656°W)
Time: 01:40:04
(UTC-05:00)
Language:

Iridium 63 - Orbit

View from above orbital plane
View from above orbital plane
View from above satellite
View from above satellite

Ground track
Ground track

The orbit data is extracted from the following two-line orbital elements,

1 25286U 98021B   17232.61471076 +.00000087 +00000-0 +23644-4 0  9998
2 25286 086.4017 197.3896 0002137 089.9143 027.8446 14.34675171014006
Epoch (UTC): 20 August 2017 14:45:11
Eccentricity: 0.0002137
inclination: 86.4017°
perigee height: 774 km
apogee height: 777 km
right ascension of ascending node: 197.3896°
argument of perigee: 89.9143°
revolutions per day: 14.34675171
mean anomaly at epoch: 27.8446°
orbit number at epoch: 1400

The dashed part of the orbit path shows where the satellite is in the earth's shadow,  

DLR